Temperature
14 14 13 14 13 13 12 12 12 13 13 14 14 14 14 15 14 13 12 11 11 10 9 9 8 8 8 7 7 7 6 5 5 4 4 4 4 4 3 3 2 2 2 1
13 13 14 14 13 13 12 12 12 12 12 13 14 14 13 13 13 12 11 11 10 9 8 8 8 7 7 6 6 5 5 4 4 4 3 3 3 2 2 1 1 1 0 -0
12 12 13 13 12 12 12 12 12 12 13 13 12 11 11 12 12 12 11 10 9 8 7 7 7 6 6 5 4 4 3 3 3 3 2 2 1 1 0 -0 -1 -1 -1 -1
10 11 12 12 12 12 12 13 12 13 12 12 10 9 11 11 12 11 10 8 7 7 7 6 5 4 4 3 3 3 2 2 2 2 1 1 0 -0 -1 -1 -2 -2 -2 -2
8 10 10 11 12 12 13 12 11 11 11 9 10 10 9 10 10 10 8 7 7 6 5 4 4 3 2 2 2 2 2 1 1 0 -0 -1 -1 -2 -2 -2 -3 -3 -3 -3
8 9 10 11 12 12 13 10 10 10 10 10 10 8 7 8 8 7 7 6 5 5 4 4 3 2 2 2 1 1 1 0 -0 -1 -2 -2 -2 -3 -3 -3 -3 -4 -4 -4
7 8 8 9 10 12 11 10 9 10 10 10 9 8 9 8 7 7 6 6 5 4 3 3 2 1 1 1 0 -0 -0 -1 -1 -2 -3 -3 -3 -4 -4 -4 -4 -4 -5 -5
6 7 8 10 11 9 9 9 9 10 9 9 9 9 8 8 7 6 5 4 4 3 2 1 1 1 0 -0 -1 -1 -1 -2 -2 -3 -3 -4 -4 -4 -4 -5 -5 -6 -6 -7
7 8 9 10 10 10 10 9 9 9 9 8 8 8 7 7 6 5 4 3 2 1 0 0 -0 -0 -1 -1 -1 -2 -2 -2 -3 -3 -4 -4 -5 -5 -5 -6 -7 -8 -8 -8
7 8 9 9 9 9 9 8 8 8 7 7 7 6 6 5 4 3 2 1 0 -0 -0 -0 -1 -1 -1 -2 -2 -2 -3 -3 -4 -4 -4 -5 -5 -6 -6 -7 -8 -9 -8 -8
7 8 8 8 8 8 8 8 7 7 6 6 5 5 4 4 3 2 1 -1 -1 -1 -1 -1 -1 -1 -2 -3 -3 -3 -3 -3 -4 -5 -5 -6 -6 -6 -7 -8 -9 -9 -9 -9
7 8 7 8 8 8 7 7 6 6 5 5 4 3 3 2 1 -0 -1 -1 -1 -1 -1 -1 -2 -2 -2 -3 -3 -4 -4 -4 -5 -6 -7 -7 -7 -7 -7 -8 -9 -9 -9 -9
9 8 8 8 8 7 7 6 5 5 4 3 2 2 1 0 -1 -1 -1 -1 -1 -1 -1 -2 -2 -2 -3 -3 -4 -4 -5 -6 -6 -7 -8 -8 -8 -9 -9 -9 -9 -9 -10 -10
8 8 7 7 7 6 6 5 4 3 2 2 1 0 -0 -1 -1 -1 -1 -1 -1 -1 -2 -3 -3 -3 -4 -4 -5 -5 -6 -7 -7 -8 -8 -9 -9 -10 -10 -10 -10 -10 -10 -10
7 7 7 6 6 5 4 3 3 2 1 1 -0 -1 -1 -1 -1 -1 -1 -2 -2 -2 -3 -3 -4 -4 -4 -5 -5 -6 -7 -8 -8 -9 -9 -9 -10 -10 -10 -11 -11 -11 -11 -10
6 6 6 5 5 4 3 3 2 1 0 -0 -1 -1 -1 -1 -1 -1 -2 -3 -3 -3 -3 -4 -4 -5 -5 -5 -6 -7 -8 -8 -9 -10 -10 -10 -10 -11 -11 -11 -11 -11 -11 -11
5 5 5 5 4 4 3 2 1 0 -0 -1 -1 -1 -1 -1 -2 -2 -3 -3 -4 -4 -4 -5 -5 -5 -5 -6 -7 -8 -9 -9 -10 -10 -10 -10 -11 -11 -11 -11 -11 -11 -11 -11
5 5 5 5 4 3 2 1 1 0 -0 -1 -1 -1 -2 -2 -3 -3 -4 -4 -4 -4 -4 -5 -5 -6 -6 -7 -8 -9 -10 -10 -10 -11 -11 -11 -11 -11 -11 -11 -11 -11 -11 -11
5 5 5 4 3 2 1 1 0 -0 -1 -1 -1 -2 -3 -3 -4 -4 -4 -4 -4 -5 -5 -6 -6 -7 -7 -8 -9 -10 -10 -10 -11 -11 -11 -11 -11 -11 -11 -12 -12 -12 -12 -12
5 5 4 3 2 1 1 0 -0 -1 -1 -2 -2 -3 -3 -3 -4 -4 -4 -5 -5 -6 -6 -7 -7 -8 -8 -9 -10 -10 -11 -11 -11 -11 -11 -11 -11 -12 -12 -12 -12 -12 -12 -12
5 4 4 3 2 1 0 -0 -1 -1 -2 -2 -3 -3 -3 -4 -4 -5 -5 -5 -6 -6 -7 -7 -8 -8 -9 -10 -10 -11 -11 -11 -11 -11 -12 -12 -12 -12 -12 -12 -12 -12 -12 -12
4 4 3 2 1 1 -0 -1 -1 -2 -2 -3 -3 -3 -4 -4 -5 -6 -6 -6 -7 -7 -8 -8 -9 -9 -10 -10 -11 -11 -11 -11 -11 -12 -12 -12 -13 -13 -13 -13 -13 -13 -13 -13
3 3 3 2 1 -0 -1 -1 -2 -2 -3 -3 -4 -4 -5 -5 -6 -7 -7 -7 -8 -8 -9 -9 -9 -9 -10 -11 -11 -11 -11 -11 -11 -12 -12 -12 -13 -13 -13 -13 -13 -13 -13 -13
2 2 2 1 -0 -1 -1 -2 -3 -3 -3 -4 -5 -5 -6 -6 -7 -7 -8 -8 -9 -9 -9 -9 -9 -10 -10 -11 -10 -10 -10 -11 -12 -12 -12 -13 -13 -13 -13 -13 -13 -13 -13 -13
1 1 1 -0 -1 -1 -2 -3 -4 -4 -5 -5 -5 -6 -7 -7 -8 -8 -9 -9 -9 -9 -9 -9 -10 -10 -10 -10 -10 -11 -11 -12 -13 -13 -13 -13 -13 -14 -14 -14 -13 -13 -13 -13
0 -0 -1 -2 -2 -3 -4 -4 -5 -5 -6 -6 -6 -7 -7 -8 -8 -9 -9 -9 -10 -10 -10 -10 -10 -10 -10 -10 -11 -11 -11 -12 -12 -12 -13 -13 -14 -14 -14 -14 -14 -13 -13 -13
-1 -2 -2 -3 -4 -4 -5 -5 -6 -6 -7 -7 -7 -8 -8 -9 -9 -10 -10 -10 -10 -10 -10 -10 -10 -11 -11 -11 -11 -11 -12 -12 -13 -13 -13 -14 -14 -14 -14 -14 -14 -13 -13 -13
Wind_Speed
4 4 6 6 8 9 8 8 9 7 6 6 5 4 5 5 5 7 8 8 8 8 6 5 5 4 5 6 6 7 6 7 7 7 8 9 11 11 12 13 15 14 16 16
3 3 2 2 6 7 6 5 7 6 8 7 4 1 1 3 7 8 8 9 8 7 6 4 4 4 4 5 6 6 6 6 7 8 10 11 11 12 13 13 14 15 15 16
2 3 4 6 6 8 6 6 7 8 7 1 3 4 2 3 7 9 9 8 7 6 4 3 2 3 3 4 5 6 6 7 8 9 10 11 13 13 13 13 14 14 15 15
3 3 5 5 2 5 6 4 6 6 4 3 5 5 5 3 5 8 8 7 6 4 3 2 2 3 3 4 5 6 6 7 8 10 11 11 12 13 12 12 13 14 15 15
4 3 6 5 3 1 4 4 6 3 4 6 5 4 5 5 4 6 6 6 5 4 3 3 3 3 4 5 6 6 7 8 9 10 11 12 13 12 12 12 14 13 15 15
4 4 6 5 4 4 3 4 5 5 5 2 2 3 3 3 6 7 6 5 4 3 4 4 4 4 5 6 7 7 8 8 8 9 10 12 12 11 11 12 13 15 15 14
4 3 7 7 6 1 3 2 3 5 5 4 2 2 4 7 6 6 6 5 4 4 4 4 4 5 6 6 7 7 8 8 8 9 10 11 9 10 13 14 14 14 15 14
5 4 8 4 3 5 5 2 3 5 4 3 2 4 6 8 7 6 5 5 4 4 3 4 5 5 6 6 7 7 8 8 9 9 10 12 11 11 12 12 13 13 14 14
8 7 4 1 6 6 6 4 3 2 2 2 4 6 6 5 5 4 5 4 3 3 3 4 5 4 5 7 8 8 8 9 9 10 8 9 10 12 12 10 11 12 13 14
4 4 4 4 6 4 5 5 5 4 3 3 5 5 4 4 4 4 4 3 2 2 3 4 5 5 6 8 8 8 9 9 8 9 9 9 9 9 10 11 12 13 14 14
3 3 1 5 5 6 5 4 4 3 2 2 3 2 4 4 4 4 4 2 1 1 3 5 6 7 7 8 8 8 9 8 8 8 9 10 10 9 12 10 13 17 14 14
6 5 3 3 2 5 5 5 6 6 3 1 2 4 4 4 4 4 3 1 1 3 4 5 6 8 8 8 8 8 9 9 8 8 8 9 11 14 18 18 23 24 22 21
4 2 3 2 2 3 4 3 3 5 5 4 3 4 5 4 3 3 1 1 3 4 5 7 8 9 9 8 8 8 9 10 9 8 8 10 10 12 15 18 21 21 23 25
3 3 3 3 2 1 2 2 3 3 3 4 4 4 4 4 2 1 1 3 5 6 7 7 8 10 9 8 8 9 9 12 11 8 9 10 10 11 12 15 16 14 17 24
2 3 3 3 4 3 2 2 3 3 4 4 4 4 4 3 2 3 4 5 6 7 8 8 9 10 9 8 9 10 9 7 8 8 8 9 10 11 12 14 14 15 14 16
4 2 2 3 5 6 6 5 5 5 5 5 5 4 3 3 3 4 5 5 6 8 9 9 10 10 9 9 9 9 8 15 15 10 9 10 10 11 12 13 14 14 13 14
5 5 6 6 7 7 7 7 7 6 7 7 6 5 3 2 4 6 7 7 7 8 9 10 11 10 9 9 9 9 8 11 18 13 9 11 11 11 11 12 12 13 13 16
6 5 5 6 5 6 7 7 7 7 7 7 6 4 4 5 7 8 8 8 8 8 9 10 10 10 9 9 9 8 8 8 9 10 10 11 12 11 11 12 13 14 13 15
4 4 4 5 6 5 6 7 7 7 6 6 6 6 7 7 7 7 7 7 9 10 8 8 16 13 10 12 14 8 9 10 11 11 12 16 14 10 11 12 13 13 14 13
4 4 5 5 5 5 6 6 7 7 6 6 6 7 7 7 7 6 7 7 8 8 9 12 12 10 9 10 16 9 9 10 12 12 12 11 11 12 12 13 13 13 13 12
7 7 7 7 7 7 7 8 8 8 7 7 7 7 7 7 6 6 6 8 8 8 10 16 11 9 10 13 17 9 9 10 11 11 11 11 12 13 13 13 13 14 13 13
7 8 8 8 8 7 7 7 7 8 7 6 6 5 5 6 7 7 7 8 9 15 12 8 8 14 18 20 9 8 9 10 11 10 10 10 11 12 12 12 12 13 13 11
7 7 8 8 9 7 6 7 7 7 6 6 5 5 5 6 5 6 9 6 7 15 13 9 16 23 26 14 8 9 11 11 11 11 11 10 11 11 12 12 12 12 11 11
7 7 8 7 6 6 7 7 6 4 4 3 4 5 5 5 6 6 7 14 18 19 12 16 24 25 24 10 9 10 10 10 10 11 12 11 10 10 11 12 12 12 11 11
6 6 5 6 7 6 6 4 4 3 2 2 4 5 5 4 6 7 8 10 16 18 12 16 23 23 15 11 12 12 11 11 13 13 11 10 11 11 12 12 12 12 11 10
4 4 4 5 4 4 4 4 3 1 1 3 4 5 5 5 7 8 8 10 13 17 14 12 13 16 12 12 13 13 12 13 14 13 12 12 13 13 12 12 12 11 10 10
2 3 3 3 3 4 4 3 2 0 2 3 5 5 6 6 7 8 10 10 11 11 12 12 12 12 13 13 14 13 13 12 12 12 12 12 12 11 12 12 11 10 9 9
Wind_Direction
128 136 150 168 184 183 188 192 200 229 224 239 228 233 241 227 170 137 136 128 121 117 107 93 79 63 46 27 15 13 16 22 11 357 354 352 349 345 342 340 338 334 333 331
89 44 98 235 234 222 223 213 229 260 270 238 233 208 132 153 148 147 141 130 125 120 114 101 85 63 40 21 7 10 19 13 360 358 355 350 344 340 337 334 331 330 328 326
151 9 21 275 241 212 211 204 194 227 248 249 81 69 71 168 157 152 144 135 128 122 118 113 95 62 32 9 6 14 16 4 359 356 350 343 339 336 331 329 327 325 323 322
116 99 226 233 281 211 198 229 228 242 287 33 108 97 32 28 138 138 131 127 128 136 139 114 65 31 13 14 16 13 6 358 355 350 343 337 333 329 325 324 324 321 320 318
128 189 274 302 318 81 151 55 5 27 57 88 113 70 18 25 99 128 132 139 149 156 138 93 53 24 25 20 12 6 357 350 346 342 336 332 327 322 320 322 320 316 317 315
132 172 232 242 269 265 113 83 13 56 70 109 114 5 278 163 124 127 137 145 142 119 89 66 34 30 34 15 3 352 342 335 332 330 325 321 316 314 316 317 315 315 314 312
146 209 263 259 276 2 145 210 346 39 42 42 33 242 177 154 156 157 150 130 104 84 64 39 27 34 22 1 342 326 321 320 319 317 314 312 312 314 315 316 315 313 311 309
150 189 251 284 77 116 157 149 70 51 44 67 147 162 167 176 172 156 133 107 94 79 45 21 21 22 359 333 314 312 313 313 311 309 311 320 314 312 313 313 314 314 313 312
185 201 203 100 129 143 144 148 162 165 188 181 196 209 205 187 153 133 122 113 95 68 17 359 359 359 328 310 311 314 313 308 305 305 302 304 310 315 317 315 315 315 315 315
222 245 168 154 144 151 167 185 201 202 213 229 246 249 204 151 143 137 126 114 90 33 344 325 320 316 302 302 309 310 306 302 302 306 310 312 312 312 313 314 314 315 316 317
242 263 110 143 180 197 199 197 197 202 209 240 244 209 161 148 140 130 122 119 105 320 305 301 305 304 303 303 305 303 300 298 303 307 311 314 312 307 308 301 308 315 316 316
228 231 183 212 208 175 183 208 215 207 199 139 161 164 139 130 125 126 132 142 314 313 305 301 302 300 298 296 297 301 309 311 309 310 309 310 311 312 310 312 315 317 318 318
209 172 174 195 134 156 187 216 227 205 194 178 155 143 138 133 129 123 103 348 312 303 301 303 304 299 296 296 299 300 303 308 307 304 305 308 309 312 314 317 318 319 320 321
213 164 166 176 191 97 89 86 89 108 141 159 153 134 126 128 128 108 307 297 299 305 305 301 295 291 292 296 297 296 297 303 307 300 301 303 305 307 309 313 316 317 319 319
103 130 167 148 123 118 140 171 181 184 176 168 156 147 146 160 225 274 291 305 310 303 293 288 288 292 296 297 298 297 296 291 292 293 296 300 303 305 307 308 310 312 313 317
163 144 156 186 207 209 208 215 219 216 202 191 181 180 186 203 256 288 297 297 291 287 288 289 291 294 299 299 299 299 292 301 312 307 303 303 303 304 306 307 307 307 310 314
185 226 217 223 228 224 220 219 217 211 198 192 193 190 191 233 279 283 281 275 269 272 279 286 291 296 297 294 292 295 292 298 309 309 299 299 301 301 301 301 303 304 305 308
210 219 209 214 223 227 224 208 201 196 192 194 183 183 210 237 254 265 274 284 288 287 284 285 290 301 297 295 293 290 291 295 298 298 298 298 300 299 300 301 300 300 302 306
195 216 235 241 236 226 212 199 194 191 185 178 186 211 230 241 251 266 280 290 294 298 293 291 308 312 299 297 305 293 295 297 298 298 299 301 303 297 296 297 298 300 302 305
216 224 235 239 223 207 202 194 185 187 193 191 204 224 246 260 270 280 285 283 279 277 285 296 300 293 292 293 304 293 291 294 298 301 301 299 298 298 298 299 300 301 302 304
226 221 220 217 215 214 205 190 184 196 202 202 211 230 251 271 283 288 290 293 288 287 297 303 304 298 300 300 304 296 294 297 299 299 299 299 299 299 299 299 300 301 302 303
221 216 217 211 208 211 207 196 194 200 204 213 226 241 264 281 288 285 271 273 285 299 305 291 291 299 306 307 300 296 298 299 300 298 296 294 295 295 295 295 296 298 299 299
230 221 217 212 209 210 208 205 206 205 211 222 239 256 266 271 276 282 289 280 287 300 305 294 300 305 309 310 298 300 300 297 296 295 293 291 290 290 290 291 293 295 296 296
236 229 224 215 200 202 214 218 212 208 211 232 253 265 273 284 283 266 271 298 307 305 302 299 305 308 312 308 299 297 293 290 290 290 291 290 289 289 291 293 294 294 292 292
238 232 216 198 200 211 213 191 176 189 218 273 287 287 281 269 275 288 289 293 301 306 302 303 305 308 308 297 296 295 294 290 292 295 293 294 293 292 291 290 289 290 290 290
226 218 211 203 196 177 158 152 158 167 252 294 294 291 286 280 279 286 291 292 294 301 303 299 298 300 298 295 294 294 293 294 296 295 291 290 289 288 289 289 287 288 288 286
166 146 135 124 118 123 123 123 127 256 294 287 290 289 289 294 296 296 296 297 298 297 296 296 295 295 296 296 295 294 294 293 292 291 291 290 289 288 288 287 288 287 285 284
Height
1461 1461 1465 1466 1468 1470 1474 1476 1482 1477 1476 1469 1466 1466 1466 1467 1468 1470 1474 1475 1476 1477 1477 1478 1478 1477 1475 1473 1470 1467 1464 1461 1457 1453 1449 1445 1440 1435 1431 1426 1420 1415 1409 1403
1463 1463 1463 1465 1466 1468 1470 1471 1474 1474 1472 1465 1464 1464 1465 1466 1467 1470 1472 1473 1475 1475 1476 1476 1476 1475 1473 1470 1467 1464 1461 1457 1453 1449 1445 1441 1436 1431 1426 1421 1416 1410 1404 1399
1470 1469 1465 1470 1465 1467 1467 1466 1468 1470 1466 1462 1464 1465 1465 1466 1467 1469 1470 1472 1473 1474 1475 1475 1474 1472 1470 1467 1464 1460 1457 1453 1449 1445 1441 1436 1432 1427 1422 1416 1411 1405 1400 1394
1473 1472 1477 1466 1460 1460 1463 1462 1462 1461 1461 1462 1464 1466 1467 1467 1468 1469 1470 1472 1473 1474 1474 1473 1471 1468 1466 1463 1460 1457 1453 1449 1445 1441 1436 1432 1428 1423 1418 1412 1407 1401 1395 1389
1479 1477 1474 1465 1460 1458 1460 1464 1464 1462 1463 1465 1465 1466 1468 1468 1469 1470 1471 1472 1473 1473 1471 1469 1467 1464 1462 1460 1456 1453 1449 1445 1441 1437 1432 1428 1423 1419 1413 1407 1401 1396 1390 1384
1478 1477 1476 1465 1457 1456 1458 1468 1468 1465 1465 1466 1466 1470 1470 1468 1468 1469 1470 1470 1470 1469 1467 1465 1463 1461 1459 1455 1452 1449 1445 1441 1438 1434 1429 1425 1420 1414 1409 1403 1396 1390 1384 1379
1476 1478 1473 1462 1456 1456 1466 1470 1468 1465 1465 1465 1466 1468 1467 1466 1467 1467 1467 1467 1467 1466 1464 1462 1460 1457 1455 1452 1449 1445 1441 1438 1434 1430 1426 1420 1415 1410 1404 1397 1390 1384 1378 1372
1476 1479 1474 1458 1456 1461 1466 1465 1465 1465 1465 1465 1465 1465 1465 1464 1464 1464 1464 1464 1463 1462 1461 1459 1457 1455 1452 1449 1445 1441 1437 1433 1430 1426 1421 1416 1410 1404 1398 1392 1385 1378 1372 1365
1464 1464 1458 1456 1457 1459 1461 1463 1463 1464 1464 1464 1464 1463 1463 1462 1462 1462 1462 1461 1460 1459 1458 1456 1454 1451 1448 1445 1441 1437 1433 1429 1425 1420 1416 1411 1405 1399 1392 1386 1380 1374 1367 1360
1456 1454 1455 1455 1456 1458 1459 1460 1461 1462 1462 1462 1462 1461 1460 1460 1460 1459 1459 1458 1457 1456 1454 1453 1451 1448 1445 1441 1437 1433 1429 1424 1419 1414 1409 1405 1400 1394 1388 1381 1376 1370 1363 1357
1453 1452 1453 1455 1456 1457 1457 1458 1459 1459 1459 1459 1458 1457 1457 1457 1457 1456 1455 1454 1454 1453 1451 1449 1447 1444 1441 1437 1433 1428 1423 1419 1414 1409 1404 1399 1394 1389 1383 1377 1374 1368 1361 1354
1451 1449 1451 1453 1454 1455 1455 1456 1456 1456 1455 1455 1454 1453 1453 1453 1453 1452 1452 1452 1451 1449 1447 1445 1442 1440 1437 1433 1428 1423 1418 1413 1409 1404 1399 1394 1388 1381 1375 1372 1367 1362 1357 1351
1446 1448 1449 1451 1452 1452 1452 1452 1452 1451 1451 1450 1449 1449 1449 1449 1449 1449 1449 1448 1447 1445 1443 1440 1438 1435 1432 1427 1422 1418 1413 1409 1404 1399 1394 1389 1383 1376 1367 1361 1358 1354 1350 1345
1445 1447 1448 1449 1449 1449 1449 1448 1447 1447 1446 1446 1445 1445 1445 1445 1446 1446 1446 1445 1443 1441 1439 1436 1433 1430 1426 1421 1417 1412 1408 1404 1399 1394 1389 1383 1378 1372 1366 1358 1351 1345 1342 1339
1443 1444 1446 1446 1446 1445 1444 1443 1442 1442 1442 1442 1441 1442 1442 1443 1443 1443 1442 1441 1439 1437 1434 1431 1427 1424 1419 1415 1411 1406 1402 1398 1393 1388 1383 1378 1372 1367 1362 1356 1349 1343 1337 1332
1441 1442 1442 1442 1441 1440 1439 1438 1438 1438 1438 1438 1439 1439 1440 1440 1440 1439 1438 1437 1434 1432 1429 1425 1421 1417 1413 1409 1404 1400 1396 1392 1387 1382 1376 1371 1366 1361 1356 1351 1345 1340 1334 1329
1437 1437 1437 1437 1436 1436 1435 1434 1434 1435 1435 1436 1436 1437 1437 1437 1436 1436 1434 1432 1429 1426 1423 1419 1414 1410 1406 1402 1398 1393 1388 1384 1380 1375 1370 1365 1360 1356 1351 1346 1341 1336 1330 1325
1434 1434 1434 1433 1433 1432 1431 1431 1431 1432 1432 1433 1434 1434 1434 1433 1432 1431 1429 1426 1423 1420 1417 1413 1408 1404 1400 1396 1391 1386 1382 1377 1373 1368 1364 1359 1354 1350 1345 1341 1335 1330 1324 1320
1431 1431 1430 1430 1429 1428 1428 1428 1428 1428 1429 1430 1430 1430 1430 1429 1427 1425 1422 1419 1415 1411 1409 1406 1402 1397 1393 1388 1384 1379 1375 1370 1366 1361 1357 1352 1348 1343 1339 1334 1329 1325 1320 1315
1428 1428 1427 1426 1425 1425 1424 1424 1424 1425 1425 1426 1426 1426 1425 1424 1422 1419 1415 1412 1410 1406 1401 1397 1393 1389 1385 1381 1376 1372 1368 1364 1359 1354 1350 1345 1341 1337 1332 1328 1323 1319 1314 1309
1425 1424 1423 1422 1421 1421 1420 1420 1420 1421 1422 1422 1421 1420 1419 1417 1415 1412 1409 1405 1403 1400 1395 1390 1386 1382 1377 1373 1369 1365 1361 1356 1351 1347 1342 1338 1333 1329 1325 1321 1317 1312 1308 1304
1421 1420 1419 1418 1417 1416 1416 1416 1417 1417 1417 1417 1416 1415 1413 1411 1409 1406 1403 1400 1395 1392 1387 1382 1379 1375 1370 1366 1362 1357 1352 1348 1343 1339 1334 1329 1325 1321 1318 1314 1310 1306 1302 1298
1416 1415 1413 1412 1412 1412 1412 1412 1412 1412 1412 1411 1410 1408 1406 1404 1402 1399 1395 1392 1388 1384 1379 1375 1371 1367 1363 1358 1353 1349 1344 1339 1335 1330 1326 1321 1318 1314 1311 1307 1303 1299 1296 1292
1409 1408 1408 1407 1406 1406 1406 1406 1406 1406 1405 1405 1404 1403 1401 1398 1395 1393 1389 1385 1381 1376 1372 1368 1364 1359 1355 1350 1345 1340 1335 1331 1327 1322 1318 1314 1311 1307 1304 1300 1296 1292 1289 1286
1402 1402 1401 1400 1400 1399 1400 1400 1400 1400 1399 1399 1398 1397 1395 1392 1389 1385 1381 1377 1373 1369 1364 1360 1356 1351 1346 1341 1336 1332 1327 1323 1319 1315 1311 1307 1303 1299 1295 1292 1289 1285 1283 1280
1396 1395 1394 1394 1394 1394 1394 1394 1395 1395 1394 1393 1392 1391 1389 1386 1382 1378 1374 1370 1366 1361 1357 1352 1347 1342 1337 1332 1328 1323 1319 1314 1310 1306 1301 1298 1294 1291 1287 1284 1281 1278 1276 1273
1390 1389 1388 1388 1389 1389 1390 1390 1390 1390 1389 1388 1386 1384 1382 1378 1374 1371 1367 1363 1358 1354 1349 1344 1339 1334 1329 1324 1319 1314 1310 1305 1301 1297 1293 1289 1285 1282 1279 1276 1273 1271 1268 1267